Change the Weather History Date:

Friday, November 16, 2012

  Actual Average (KMTC) Record (KMTC)
Temperature  
Mean Temperature 37 °F -  
Max Temperature 53 °F 45 °F 70 °F (1953)
Min Temperature 21 °F 30 °F 16 °F (1967)
Degree Days  
Heating Degree Days 28    
Moisture  
Dew Point 29 °F    
Average Humidity 85    
Maximum Humidity 100    
Minimum Humidity 47    
Precipitation  
Precipitation 0.00 in - - ()
Sea Level Pressure  
Sea Level Pressure 30.44 in    
Wind  
Wind Speed 1 mph (North)    
Max Wind Speed 9 mph    
Max Gust Speed -    
Visibility 5 miles    
Events Fog    
Averages and records for this station are not official NWS values.
T = Trace of Precipitation, MM = Missing Value Source: NWS Daily Summary

Daily Weather History Graph

Daily Weather History Graph

Search for Another Location

Airport or City:

Trip Planner

Search our weather history database for the weather conditions in past years. The results will help you decide how hot, cold, wet, or windy it might be!

Date:

Astronomy

Nov. 16, 2012 Rise Set
Actual Time 7:24 AM EST 5:05 PM EST
Civil Twilight 6:53 AM EST 5:36 PM EST
Nautical Twilight 6:19 AM EST 6:10 PM EST
Astronomical Twilight 5:45 AM EST 6:43 PM EST
Moon 10:18 AM EST (11/16) 8:02 PM EST (11/16)
Length of Visible Light 10h 42m
Length of Day
9h 41m
Waxing Crescent, 11% of the Moon is Illuminated
Nov 16
Waxing Crescent
Nov 20
First Quarter
Nov 28
Full
Dec 6
Last Quarter
Dec 13
New

Hourly Weather History & Observations

Time (EST) Temp. Windchill Dew Point Humidity Pressure Visibility Wind Dir Wind Speed Gust Speed Precip Events Conditions
12:16 AM 23.0 °F - 23.0 °F 100% 30.37 in 5.0 mi Calm Calm - N/A   Clear
12:36 AM 24.8 °F - 23.0 °F 93% 30.37 in 4.0 mi Calm Calm - N/A   Clear
12:56 AM 24.8 °F - 23.0 °F 93% 30.37 in 5.0 mi Calm Calm - N/A   Clear
1:16 AM 23.0 °F 18.4 °F 23.0 °F 100% 30.37 in 5.0 mi WNW 3.5 mph - N/A   Clear
1:36 AM 23.0 °F - 21.2 °F 93% 30.37 in 7.0 mi Calm Calm - N/A   Clear
1:56 AM 23.0 °F - 23.0 °F 100% 30.37 in 7.0 mi Calm Calm - N/A   Clear
2:16 AM 23.0 °F - 23.0 °F 100% 30.37 in 7.0 mi Calm Calm - N/A   Clear
2:36 AM 23.0 °F - 23.0 °F 100% 30.38 in 7.0 mi Calm Calm - N/A   Clear
2:56 AM 23.0 °F - 21.2 °F 93% 30.38 in 7.0 mi Calm Calm - N/A   Clear
3:16 AM 23.0 °F - 21.2 °F 93% 30.38 in 7.0 mi Calm Calm - N/A   Clear
3:36 AM 23.0 °F - 21.2 °F 93% 30.38 in 7.0 mi Calm Calm - N/A   Clear
3:56 AM 23.0 °F - 21.2 °F 93% 30.38 in 7.0 mi Calm Calm - N/A   Clear
4:16 AM 23.0 °F - 21.2 °F 93% 30.38 in 7.0 mi Calm Calm - N/A   Clear
4:36 AM 21.2 °F - 21.2 °F 100% 30.38 in 7.0 mi Calm Calm - N/A   Clear
4:56 AM 21.2 °F - 21.2 °F 100% 30.39 in 7.0 mi Calm Calm - N/A   Clear
5:16 AM 21.2 °F - 19.4 °F 93% 30.39 in 7.0 mi Calm Calm - N/A   Clear
5:36 AM 21.2 °F - 19.4 °F 93% 30.39 in 7.0 mi Calm Calm - N/A   Clear
5:56 AM 21.2 °F - 19.4 °F 93% 30.39 in 7.0 mi Calm Calm - N/A   Clear
6:16 AM 21.2 °F - 19.4 °F 93% 30.40 in 7.0 mi Calm Calm - N/A   Clear
6:36 AM 21.2 °F - 19.4 °F 93% 30.41 in 7.0 mi Calm Calm - N/A   Clear
6:56 AM 21.2 °F - 19.4 °F 93% 30.42 in 7.0 mi Calm Calm - N/A   Clear
7:16 AM 21.2 °F - 19.4 °F 93% 30.42 in 5.0 mi Calm Calm - N/A   Clear
7:36 AM 21.2 °F - 21.2 °F 100% 30.42 in 5.0 mi Calm Calm - N/A   Clear
7:56 AM 21.2 °F - 21.2 °F 100% 30.43 in 5.0 mi Calm Calm - N/A   Clear
8:16 AM 23.0 °F - 23.0 °F 100% 30.43 in 5.0 mi Calm Calm - N/A   Clear
8:36 AM 26.6 °F 22.6 °F 24.8 °F 93% 30.44 in 5.0 mi WNW 3.5 mph - N/A   Clear
8:56 AM 30.2 °F 26.7 °F 28.4 °F 93% 30.44 in 4.0 mi WNW 3.5 mph - N/A   Clear
9:16 AM 32.0 °F - 30.2 °F 93% 30.44 in 5.0 mi Calm Calm - N/A   Clear
9:36 AM 33.8 °F - 30.2 °F 87% 30.45 in 5.0 mi Calm Calm - N/A   Clear
9:56 AM 35.6 °F 30.7 °F 32.0 °F 87% 30.45 in 5.0 mi NW 5.8 mph - N/A   Haze
10:16 AM 37.4 °F 34.9 °F 32.0 °F 81% 30.45 in 7.0 mi NW 3.5 mph - N/A   Clear
10:36 AM 39.2 °F - 32.0 °F 75% 30.45 in 7.0 mi Calm Calm - N/A   Clear
10:56 AM 41.0 °F - 32.0 °F 70% 30.45 in 7.0 mi Calm Calm - N/A   Clear
11:16 AM 42.8 °F - 32.0 °F 66% 30.45 in 7.0 mi Calm Calm - N/A   Clear
11:36 AM 44.6 °F - 32.0 °F 61% 30.44 in - Calm Calm - N/A   Clear
11:56 AM 48.2 °F - 33.8 °F 58% 30.44 in - South 3.5 mph - N/A   Clear
12:16 PM 50.0 °F - 33.8 °F 54% 30.43 in 7.0 mi SW 3.5 mph - N/A   Clear
12:36 PM 50.0 °F - 33.8 °F 54% 30.43 in 10.0 mi Calm Calm - N/A   Clear
12:56 PM 51.8 °F - 33.8 °F 50% 30.43 in 10.0 mi Calm Calm - N/A   Clear
1:16 PM 51.8 °F - 33.8 °F 50% 30.43 in 10.0 mi Calm Calm - N/A   Clear
1:36 PM 53.6 °F - 33.8 °F 47% 30.44 in 10.0 mi SW 3.5 mph - N/A   Clear
1:56 PM 53.6 °F - 33.8 °F 47% 30.43 in 10.0 mi East 3.5 mph - N/A   Clear
2:16 PM 53.6 °F - 33.8 °F 47% 30.43 in 10.0 mi Calm Calm - N/A   Clear
2:36 PM 53.6 °F - 33.8 °F 47% 30.44 in 10.0 mi NE 9.2 mph - N/A   Clear
2:56 PM 50.0 °F - 37.4 °F 62% 30.44 in 7.0 mi NE 8.1 mph - N/A   Clear
3:16 PM 48.2 °F - 37.4 °F 66% 30.45 in 7.0 mi NE 8.1 mph - N/A   Clear
3:36 PM 48.2 °F - 37.4 °F 66% 30.46 in 7.0 mi NE 6.9 mph - N/A   Clear
3:56 PM 48.2 °F - 37.4 °F 66% 30.46 in 5.0 mi NE 6.9 mph - N/A   Haze
4:16 PM 46.4 °F 43.5 °F 37.4 °F 71% 30.47 in 7.0 mi NE 5.8 mph - N/A   Clear
4:36 PM 44.6 °F 43.1 °F 37.4 °F 76% 30.47 in 5.0 mi NE 3.5 mph - N/A   Haze
4:56 PM 42.8 °F 39.3 °F 37.4 °F 81% 30.47 in 5.0 mi NNE 5.8 mph - N/A   Haze
5:16 PM 42.8 °F 41.1 °F 37.4 °F 81% 30.48 in 5.0 mi NNE 3.5 mph - N/A   Haze
5:36 PM 42.8 °F - 37.4 °F 81% 30.48 in 5.0 mi Calm Calm - N/A   Clear
5:56 PM 39.2 °F - 35.6 °F 87% 30.49 in 4.0 mi Calm Calm - N/A   Clear
6:16 PM 35.6 °F - 33.8 °F 93% 30.49 in 2.0 mi Calm Calm - N/A   Clear
6:36 PM 35.6 °F - 33.8 °F 93% 30.49 in 2.5 mi Calm Calm - N/A   Clear
6:56 PM 35.6 °F - 33.8 °F 93% 30.49 in 2.5 mi Calm Calm - N/A   Clear
7:16 PM 33.8 °F - 32.0 °F 93% 30.49 in 2.5 mi Calm Calm - N/A   Clear
7:36 PM 33.8 °F - 32.0 °F 93% 30.50 in 2.5 mi Calm Calm - N/A   Scattered Clouds
7:56 PM 32.0 °F - 32.0 °F 100% 30.50 in 1.0 mi Calm Calm - N/A   Mist
8:16 PM 32.0 °F - 32.0 °F 100% 30.50 in 0.5 mi Calm Calm - N/A Fog Fog
8:56 PM 30.2 °F - 28.4 °F 93% 30.50 in 0.2 mi Calm Calm - N/A Fog Light Freezing Fog
9:16 PM 30.2 °F - 30.2 °F 100% 30.50 in 1.5 mi Calm Calm - N/A   Overcast
9:36 PM 30.2 °F - 30.2 °F 100% 30.51 in 0.2 mi Calm Calm - N/A Fog Light Freezing Fog
9:56 PM 30.2 °F - 30.2 °F 100% 30.51 in 0.2 mi Calm Calm - N/A Fog Light Freezing Fog
10:16 PM 28.4 °F - 28.4 °F 100% 30.51 in 0.2 mi Calm Calm - N/A Fog Light Freezing Fog
10:36 PM 28.4 °F - 26.6 °F 93% 30.51 in 0.2 mi Calm Calm - N/A Fog Light Freezing Fog
10:56 PM 28.4 °F - 26.6 °F 93% 30.51 in 1.0 mi Calm Calm - N/A   Overcast
11:16 PM 28.4 °F - 28.4 °F 100% 30.51 in 0.5 mi Calm Calm - N/A Fog Light Freezing Fog
11:36 PM 28.4 °F - 28.4 °F 100% 30.51 in 0.5 mi Calm Calm - N/A Fog Light Freezing Fog
11:56 PM 28.4 °F - 28.4 °F 100% 30.52 in 0.2 mi Calm Calm - N/A Fog Light Freezing Fog